This is the latest recevied weather packets stored in our database for station/object KC2GYU. If no packets are shown the sender has not sent any weather packets the latest 10 day(s).
| Time | Temp. | Humidity | Pressure | Rain* | Wind** | Luminosity | Snow |
|---|---|---|---|---|---|---|---|
| 1777480444 | 13.33° C | 80% | 1016.1 hPa | 0 mm | - | 468 W/m² | - |
| 1777480140 | 13.33° C | 81% | 1016 hPa | 0 mm | - | 436 W/m² | - |
| 1777479837 | 12.78° C | 81% | 1016 hPa | 0 mm | - | 396 W/m² | - |
| 1777479534 | 13.33° C | 82% | 1016.1 hPa | 0 mm | - | 288 W/m² | - |
| 1777479231 | 13.33° C | 81% | 1016.5 hPa | 0 mm | - | 293 W/m² | - |
| 1777478927 | 13.33° C | 79% | 1016.5 hPa | 0 mm | - | 301 W/m² | - |
| 1777478624 | 12.78° C | 79% | 1016.5 hPa | 0 mm | - | 325 W/m² | - |
| 1777478321 | 13.33° C | 77% | 1016.2 hPa | 0 mm | - | 331 W/m² | - |
| 1777478018 | 13.89° C | 75% | 1016.5 hPa | 0 mm | - | 333 W/m² | - |
| 1777477718 | 13.89° C | 77% | 1016.3 hPa | 0 mm | - | 442 W/m² | - |
| 1777477415 | 13.33° C | 76% | 1016.4 hPa | 0 mm | - | 383 W/m² | - |
| 1777477111 | 13.89° C | 76% | 1016.3 hPa | 0 mm | - | 403 W/m² | - |
| 1777476809 | 13.33° C | 76% | 1016.6 hPa | 0 mm | - | 770 W/m² | - |
| 1777476506 | 12.78° C | 76% | 1016.7 hPa | 0 mm | - | 346 W/m² | - |
| 1777476202 | 12.78° C | 77% | 1016.4 hPa | 0 mm | - | 318 W/m² | - |
| 1777475898 | 13.33° C | 77% | 1016.6 hPa | 0 mm | - | 300 W/m² | - |
| 1777475594 | 12.78° C | 76% | 1016.3 hPa | 0 mm | - | 379 W/m² | - |
| 1777475291 | 13.33° C | 74% | 1016.4 hPa | 0 mm | - | 265 W/m² | - |
| 1777474986 | 13.33° C | 74% | 1016.6 hPa | 0 mm | - | 269 W/m² | - |
| 1777474682 | 13.33° C | 76% | 1016.5 hPa | 0 mm | - | 454 W/m² | - |
| 1777474379 | 12.78° C | 75% | 1016.6 hPa | 0 mm | - | 469 W/m² | - |
| 1777474075 | 12.78° C | 77% | 1016.7 hPa | 0 mm | - | 415 W/m² | - |
| 1777473774 | 12.78° C | 77% | 1016.8 hPa | 0 mm | - | 276 W/m² | - |
| 1777473470 | 12.78° C | 78% | 1016.5 hPa | 0 mm | - | 292 W/m² | - |
| 1777473165 | 12.78° C | 79% | 1016.6 hPa | 0 mm | - | 211 W/m² | - |
* Rain latest hour (hover to see other rain measurements)
** Current wind speed in m/s (hover to see current wind gust speed)